Weather History for Klawock, AK

Change the Weather History Date:

Tuesday, January 28, 2014

  Actual Average Record
Temperature  
Mean Temperature 42 °F -  
Max Temperature 44 °F 38 °F 46 °F (1998)
Min Temperature 39 °F 30 °F -13 °F (2012)
Degree Days  
Heating Degree Days 24    
Moisture  
Dew Point 42 °F    
Average Humidity 99    
Maximum Humidity 100    
Minimum Humidity 93    
Precipitation  
Precipitation 0.22 in - - ()
Sea Level Pressure  
Sea Level Pressure 30.10 in    
Wind  
Wind Speed 1 mph (SW)    
Max Wind Speed 7 mph    
Max Gust Speed -    
Visibility 7 miles    
Events Rain    
Averages and records for this station are not official NWS values.
T = Trace of Precipitation, MM = Missing Value Source: NWS Daily Summary

Daily Weather History Graph

Daily Weather History Graph

Search for Another Location

Airport:

Trip Planner

Search our weather history database for the weather conditions in past years. The results will help you decide how hot, cold, wet, or windy it might be!

Date:

Astronomy

Jan. 28, 2014 Rise Set
Actual Time 7:52 AM AKST 4:19 PM AKST
Civil Twilight 7:10 AM AKST 5:00 PM AKST
Nautical Twilight 6:25 AM AKST 5:45 PM AKST
Astronomical Twilight 5:42 AM AKST 6:28 PM AKST
Moon 5:48 AM AKST (1/28) 2:11 PM AKST (1/28)
Length of Visible Light 9h 49m
Length of Day
8h 27m
Waning Crescent, 6% of the Moon is Illuminated
Jan 28
Waning Crescent
Jan 30
New
Feb 6
First Quarter
Feb 14
Full
Feb 22
Last Quarter

Hourly Weather History & Observations

Time (AKST) Temp. Windchill Dew Point Humidity Pressure Visibility Wind Dir Wind Speed Gust Speed Precip Events Conditions
12:53 AM 44.1 °F - 42.1 °F 93% 30.03 in 10.0 mi Calm Calm - 0.02 in Rain Light Rain
1:53 AM 44.1 °F - 42.1 °F 93% 30.03 in 10.0 mi Calm Calm - 0.04 in Rain Light Rain
4:33 AM 43.0 °F - 42.1 °F 97% 30.05 in 8.0 mi Calm Calm - 0.02 in Rain Light Rain
4:53 AM 44.1 °F - 42.1 °F 93% 30.05 in 8.0 mi Calm Calm - 0.04 in Rain Light Rain
5:19 AM 43.0 °F - 42.1 °F 97% 30.05 in 8.0 mi Calm Calm - 0.01 in Rain Light Rain
5:27 AM 43.0 °F - 42.1 °F 97% 30.05 in 8.0 mi Calm Calm - 0.02 in Rain Light Rain
5:53 AM 43.0 °F - 42.1 °F 97% 30.05 in 8.0 mi Calm Calm - 0.03 in Rain Light Rain
6:53 AM 43.0 °F - 42.1 °F 97% 30.06 in 10.0 mi Calm Calm - 0.01 in   Overcast
7:35 AM 43.0 °F - 42.1 °F 97% 30.07 in 2.5 mi Calm Calm - 0.01 in Rain Light Rain
7:43 AM 43.0 °F - 42.1 °F 97% 30.07 in 3.0 mi Calm Calm - 0.02 in Rain Light Rain
7:53 AM 43.0 °F 41.3 °F 42.1 °F 97% 30.08 in 2.5 mi NNE 3.5 mph - 0.02 in Rain Light Rain
8:03 AM 43.0 °F - 42.1 °F 97% 30.07 in 2.5 mi Calm Calm - 0.01 in Rain Light Rain
8:17 AM 43.0 °F - 42.1 °F 97% 30.08 in 3.0 mi Calm Calm - 0.01 in Rain Light Rain
8:29 AM 43.0 °F - 42.1 °F 97% 30.08 in 2.0 mi Calm Calm - 0.02 in Rain Light Rain
8:39 AM 43.0 °F - 43.0 °F 100% 30.08 in 1.5 mi Calm Calm - 0.02 in Rain Light Rain
8:53 AM 43.0 °F - 42.1 °F 97% 30.09 in 1.2 mi Calm Calm - 0.03 in Rain Light Rain
9:08 AM 43.0 °F - 42.1 °F 97% 30.09 in 2.0 mi Calm Calm - 0.01 in Rain Light Rain
9:16 AM 43.0 °F - 42.1 °F 97% 30.09 in 8.0 mi Calm Calm - 0.01 in   Overcast
9:28 AM 43.0 °F - 43.0 °F 100% 30.08 in 10.0 mi Calm Calm - 0.01 in   Overcast
9:53 AM 43.0 °F - 43.0 °F 100% 30.10 in 2.0 mi Calm Calm - 0.01 in Rain Light Rain
10:18 AM 43.0 °F - 43.0 °F 100% 30.10 in 4.0 mi Calm Calm - 0.01 in Rain Light Rain
10:28 AM 43.0 °F - 43.0 °F 100% 30.10 in 7.0 mi Calm Calm - 0.01 in   Overcast
10:38 AM 43.0 °F 41.3 °F 43.0 °F 100% 30.11 in 10.0 mi South 3.5 mph - 0.01 in   Overcast
10:53 AM 43.0 °F 40.3 °F 43.0 °F 100% 30.12 in 10.0 mi South 4.6 mph - 0.01 in   Overcast
11:03 AM 43.0 °F 40.3 °F 43.0 °F 100% 30.11 in 2.0 mi South 4.6 mph - 0.00 in Rain Light Rain
11:20 AM 44.1 °F - 44.1 °F 100% 30.12 in 7.0 mi Calm Calm - 0.00 in   Overcast
11:53 AM 43.0 °F - 43.0 °F 100% 30.13 in 10.0 mi Calm Calm - 0.00 in   Overcast
12:33 PM 44.1 °F 41.5 °F 44.1 °F 100% 30.13 in 10.0 mi SW 4.6 mph - 0.00 in   Overcast
12:53 PM 43.0 °F 39.5 °F 43.0 °F 100% 30.13 in 10.0 mi WSW 5.8 mph - 0.00 in   Overcast
1:39 PM 43.0 °F 40.3 °F 43.0 °F 100% 30.13 in 5.0 mi SW 4.6 mph - N/A   Overcast
1:53 PM 43.0 °F 41.3 °F 43.0 °F 100% 30.14 in 10.0 mi SSW 3.5 mph - 0.00 in   Overcast
2:44 PM 43.0 °F 39.5 °F 43.0 °F 100% 30.13 in 6.0 mi WSW 5.8 mph - 0.01 in Rain Light Rain
2:53 PM 43.0 °F 39.5 °F 43.0 °F 100% 30.13 in 8.0 mi SW 5.8 mph - 0.01 in Rain Light Rain
3:15 PM 43.0 °F 38.8 °F 43.0 °F 100% 30.13 in 7.0 mi SW 6.9 mph - 0.00 in   Overcast
3:37 PM 42.1 °F 37.7 °F 42.1 °F 100% 30.12 in 8.0 mi SW 6.9 mph - 0.00 in   Overcast
3:53 PM 42.1 °F 39.2 °F 42.1 °F 100% 30.12 in 5.0 mi SW 4.6 mph - 0.00 in   Overcast
4:27 PM 41.0 °F 39.0 °F 41.0 °F 100% 30.12 in 3.0 mi South 3.5 mph - N/A   Mostly Cloudy
4:34 PM 41.0 °F 39.0 °F 41.0 °F 100% 30.12 in 3.0 mi South 3.5 mph - N/A   Mostly Cloudy
4:53 PM 39.9 °F 36.7 °F 39.9 °F 100% 30.13 in 9.0 mi South 4.6 mph - N/A   Overcast
5:29 PM 39.9 °F 37.8 °F 39.9 °F 100% 30.13 in 9.0 mi Variable 3.5 mph - N/A   Overcast
6:07 PM 39.9 °F 37.8 °F 39.9 °F 100% 30.13 in 10.0 mi South 3.5 mph - N/A   Overcast
6:45 PM 39.9 °F 36.7 °F 39.9 °F 100% 30.13 in 8.0 mi SSW 4.6 mph - N/A   Overcast
7:53 PM 39.9 °F 35.8 °F 39.9 °F 100% 30.13 in 4.0 mi West 5.8 mph - N/A   Overcast
8:53 PM 39.9 °F 37.8 °F 39.9 °F 100% 30.13 in 4.0 mi West 3.5 mph - N/A   Overcast
10:53 PM 39.9 °F - 39.9 °F 100% 30.11 in 9.0 mi Calm Calm - N/A   Overcast
11:21 PM 39.9 °F - 39.9 °F 100% 30.10 in 10.0 mi Calm Calm - N/A   Overcast
11:30 PM 39.0 °F - 39.0 °F 100% 30.10 in 9.0 mi Calm Calm - N/A   Overcast
11:53 PM 39.0 °F - 39.0 °F 100% 30.10 in 8.0 mi Calm Calm - N/A   Overcast